Marrakech, Morocco

12:25 AM WEST on April 25, 2017 (GMT +0100)
Marrakech

Weather History for GMMX - November, 2011

Change the Weather History Date:

Monday, November 21, 2011

  Actual Average Record
Temperature  
Mean Temperature 57 °F -  
Max Temperature 63 °F 66 °F 80 °F (2006)
Min Temperature 51 °F 45 °F 42 °F (2008)
Degree Days  
Heating Degree Days 8    
Growing Degree Days 7 (Base 50)    
Moisture  
Dew Point 53 °F    
Average Humidity 89    
Maximum Humidity 94    
Minimum Humidity 64    
Precipitation  
Precipitation 0.02 in 0.04 in - ()
Sea Level Pressure  
Sea Level Pressure 30.09 in    
Wind  
Wind Speed 7 mph ()    
Max Wind Speed 12 mph    
Max Gust Speed -    
Visibility 5.8 miles    
Events Rain    
Averages and records for this station are not official NWS values.
T = Trace of Precipitation, MM = Missing Value Source: Averaged Metar Reports

Daily Weather History Graph

Daily Weather History Graph

Search for Another Location

Airport or City:

Trip Planner

Search our weather history database for the weather conditions in past years. The results will help you decide how hot, cold, wet, or windy it might be!

Date:

Astronomy

Nov. 21, 2011 Rise Set
Actual Time 7:04 AM WET 5:30 PM WET
Civil Twilight 6:38 AM WET 5:56 PM WET
Nautical Twilight 6:09 AM WET 6:26 PM WET
Astronomical Twilight 5:40 AM WET 6:55 PM WET
Moon 2:41 AM WET (11/21) 2:33 PM WET (11/21)
Length of Visible Light 11h 17m
Length of Day
10h 25m
Waning Crescent, 20% of the Moon is Illuminated
Nov 21
Waning Crescent
Nov 25
New
Dec 2
First Quarter
Dec 10
Full
Dec 18
Last Quarter

Hourly Weather History & Observations

Time (WET) Temp. Dew Point Humidity Pressure Visibility Wind Dir Wind Speed Gust Speed Precip Events Conditions
12:00 AM 53 °F 50 °F 87% 30.01 in 5 mi SW 8.1 mph - - Rain Light Rain Showers
12:00 AM 51.8 °F 50.0 °F 94% 30.01 in 5.0 mi SW 8.1 mph - N/A   Partly Cloudy
12:30 AM 51.8 °F 50.0 °F 94% 30.01 in 6.2 mi SW 8.1 mph - N/A   Mostly Cloudy
1:00 AM 53.6 °F 51.8 °F 94% 30.01 in 6.2 mi SW 6.9 mph - N/A   Mostly Cloudy
1:30 AM 53.6 °F 50.0 °F 88% 30.01 in 6.2 mi SW 11.5 mph - N/A   Mostly Cloudy
2:00 AM 53.6 °F 51.8 °F 94% 30.01 in 6.2 mi SW 10.4 mph - N/A   Mostly Cloudy
2:30 AM 53.6 °F 50.0 °F 88% 30.01 in 6.2 mi SW 10.4 mph - N/A   Mostly Cloudy
3:00 AM 54 °F 50 °F 82% 30.01 in 6 mi SW 9.2 mph - -   Clear
3:00 AM 53.6 °F 50.0 °F 88% 30.01 in 6.2 mi SW 9.2 mph - N/A   Mostly Cloudy
3:30 AM 53.6 °F 50.0 °F 88% 30.01 in 6.2 mi SW 9.2 mph - N/A   Mostly Cloudy
4:00 AM 53.6 °F 51.8 °F 94% 30.01 in 6.2 mi SW 8.1 mph - N/A   Mostly Cloudy
4:30 AM 53.6 °F 51.8 °F 94% 30.01 in 3.7 mi SW 8.1 mph - N/A   Mostly Cloudy
5:00 AM 53.6 °F 51.8 °F 94% 30.01 in 6.2 mi Variable 1.2 mph - N/A   Mostly Cloudy
5:30 AM 53.6 °F 51.8 °F 94% 30.04 in 6.2 mi Variable 2.3 mph - N/A Rain Rain Showers
5:47 AM 54 °F 52 °F 89% 30.04 in 5 mi West 3.5 mph - - Rain Light Rain Showers
6:00 AM 53.6 °F 51.8 °F 94% 30.04 in 5.0 mi West 3.5 mph - N/A   Mostly Cloudy
6:30 AM 53.6 °F 51.8 °F 94% 30.04 in 6.2 mi SW 5.8 mph - N/A   Mostly Cloudy
7:00 AM 53.6 °F 51.8 °F 94% 30.06 in 5.0 mi SSW 6.9 mph - N/A   Mostly Cloudy
8:00 AM 53.6 °F 51.8 °F 94% 30.06 in 6.2 mi SW 9.2 mph - N/A   Mostly Cloudy
8:30 AM 55.4 °F 53.6 °F 94% 30.09 in 6.2 mi SW 8.1 mph - N/A   Mostly Cloudy
9:00 AM 55.4 °F 51.8 °F 88% 30.09 in 6.2 mi SW 8.1 mph - N/A   Mostly Cloudy
9:30 AM 57.2 °F 53.6 °F 88% 30.12 in 6.2 mi SW 6.9 mph - N/A   Mostly Cloudy
10:00 AM 57.2 °F 53.6 °F 88% 30.12 in 6.2 mi WSW 5.8 mph - N/A   Mostly Cloudy
10:30 AM 57.2 °F 53.6 °F 88% 30.15 in 6.2 mi West 5.8 mph - N/A   Mostly Cloudy
11:00 AM 57.2 °F 53.6 °F 88% 30.12 in 6.2 mi SW 3.5 mph - N/A Rain Rain
11:30 AM 57.2 °F 53.6 °F 88% 30.12 in 6.2 mi WSW 6.9 mph - N/A Rain Rain
12:00 PM 59.0 °F 53.6 °F 82% 30.12 in 6.2 mi WSW 4.6 mph - N/A Rain Rain
12:30 PM 62.6 °F 53.6 °F 72% 30.12 in 6.2 mi SW 5.8 mph - N/A   Mostly Cloudy
1:00 PM 62.6 °F 51.8 °F 68% 30.09 in 6.2 mi SW 8.1 mph - N/A   Mostly Cloudy
1:30 PM 62.6 °F 53.6 °F 72% 30.09 in 6.2 mi WSW 6.9 mph - N/A   Mostly Cloudy
2:00 PM 64.4 °F 51.8 °F 64% 30.09 in 6.2 mi West 8.1 mph - N/A   Mostly Cloudy
2:30 PM 62.6 °F 51.8 °F 68% 30.09 in 6.2 mi West 11.5 mph - N/A   Mostly Cloudy
3:00 PM 60.8 °F 51.8 °F 72% 30.09 in 6.2 mi West 8.1 mph - N/A Rain Light Rain
3:30 PM 60.8 °F 55.4 °F 82% 30.09 in 5.0 mi NW 6.9 mph - N/A Rain Light Rain
4:00 PM 60.8 °F 57.2 °F 88% 30.12 in 6.2 mi NW 9.2 mph - N/A   Mostly Cloudy
4:30 PM 59.0 °F 55.4 °F 88% 30.12 in 6.2 mi WNW 10.4 mph - N/A   Mostly Cloudy
5:00 PM 57.2 °F 55.4 °F 94% 30.12 in 4.3 mi West 8.1 mph - N/A   Mostly Cloudy
5:30 PM 57.2 °F 55.4 °F 94% 30.12 in 6.2 mi WSW 6.9 mph - N/A   Mostly Cloudy
5:48 PM 57 °F 55 °F 92% 30.14 in 6 mi WNW 4.6 mph - -   Partly Cloudy
6:00 PM 57.2 °F 55.4 °F 94% 30.15 in 6.2 mi West 4.6 mph - N/A   Mostly Cloudy
6:30 PM 55.4 °F 53.6 °F 94% 30.15 in 3.1 mi NNW 5.8 mph - N/A   Mostly Cloudy
7:00 PM 55.4 °F 53.6 °F 94% 30.15 in 3.7 mi Variable 2.3 mph - N/A Rain Light Rain
7:30 PM 55.4 °F 53.6 °F 94% 30.15 in 5.0 mi Variable 1.2 mph - N/A Rain Light Rain
8:00 PM 55.4 °F 53.6 °F 94% 30.18 in 5.0 mi SW 3.5 mph - N/A   Scattered Clouds
9:00 PM 55 °F 54 °F 94% 30.19 in 5 mi South 6.9 mph - - Rain Light Rain
9:00 PM 55.4 °F 53.6 °F 94% 30.18 in 5.0 mi South 6.9 mph - N/A Rain Rain
9:30 PM 55.4 °F 53.6 °F 94% 30.18 in 6.2 mi SSW 5.8 mph - N/A Rain Rain
10:00 PM 55.4 °F 53.6 °F 94% 30.21 in 6.2 mi SSW 3.5 mph - N/A Rain Rain
10:30 PM 55.4 °F 53.6 °F 94% 30.21 in 6.2 mi South 4.6 mph - N/A Rain Rain
11:00 PM 55.4 °F 53.6 °F 94% 30.18 in 6.2 mi South 5.8 mph - N/A Rain Rain
11:30 PM 55.4 °F 53.6 °F 94% 30.18 in 6.2 mi SSW 3.5 mph - N/A   Scattered Clouds